1512885600.89,1491,1.38,71950.0,-17.71,-30.01,-31.61,0,*5A
1512885602.15,1492,1.38,71944.8,-17.71,-30.11,-31.73,0,*5B
1512885603.4,1493,1.31,71944.5,-17.71,-29.83,-31.45,0,*5C
1512885604.67,1494,1.38,71944.3,-17.67,-29.95,-31.57,0,*58
1512885605.91,1495,1.38,71946.8,-17.67,-29.95,-31.33,0,*5B
1512885607.15,1496,1.38,71946.3,-17.65,-29.79,-31.51,0,*5C
1512885608.4,1497,1.38,71946.3,-17.65,-29.61,-31.23,0,*51
1512885609.61,1498,1.38,71944.3,-17.65,-29.61,-31.33,0,*5F
1512885610.86,1499,1.38,71946.8,-17.63,-29.83,-31.33,0,*54
1512885612.12,1500,1.38,71944.5,-17.63,-29.89,-31.33,0,*5F
1512885613.37,1501,1.38,71946.3,-17.65,-29.95,-31.51,0,*51
1512885614.61,1502,1.38,71944.3,-17.65,-29.95,-31.51,0,*52
1512885615.87,1503,1.38,71946.5,-17.63,-29.73,-31.33,0,*59
1512885617.13,1504,1.38,71946.5,-17.63,-30.01,-31.29,0,*58
1512885618.42,1505,1.38,71944.3,-17.63,-30.01,-31.51,0,*56
1512885619.71,1506,1.38,71944.8,-17.63,-30.01,-31.51,0,*55
1512885621.0,1507,1.38,71944.3,-17.63,-30.01,-31.61,0,*57
1512885622.26,1508,1.38,71946.3,-17.63,-30.01,-31.45,0,*5E
1512885623.56,1509,1.38,71944.3,-17.63,-29.89,-31.51,0,*52
1512885624.83,1510,1.38,71946.5,-17.61,-29.89,-31.51,0,*58
1512885626.12,1511,1.38,71940.8,-17.63,-29.89,-31.51,0,*5B
1512885627.39,1512,1.38,71944.8,-17.63,-29.89,-31.33,0,*5C
1512885628.65,1513,1.38,71942.8,-17.61,-30.01,-31.51,0,*53
1512885629.91,1514,1.38,71940.0,-17.57,-30.01,-31.39,0,*5F
1512885631.18,1515,1.38,71942.0,-17.57,-30.17,-31.61,0,*54
1512885632.43,1516,1.38,71942.8,-17.57,-30.01,-31.57,0,*55
1512885633.67,1517,1.38,71942.0,-17.57,-29.95,-31.61,0,*54
1512885634.93,1518,1.38,71942.8,-17.57,-30.01,-31.61,0,*5E
1512885636.16,1519,1.38,71942.3,-17.57,-30.23,-31.73,0,*5C
1512885637.4,1520,1.38,71938.0,-17.57,-30.33,-31.91,0,*5B
1512885638.68,1521,1.38,71938.5,-17.55,-30.39,-31.95,0,*56
1512885639.93,1522,1.38,71936.0,-17.55,-30.23,-31.73,0,*56
1512885641.19,1523,1.31,71934.0,-17.57,-30.17,-31.73,0,*52
1512885642.4,1524,1.31,71932.5,-17.61,-30.11,-31.67,0,*53
1512885643.66,1525,1.38,71936.8,-17.57,-30.17,-31.73,0,*54
1512885644.94,1526,1.38,71936.8,-17.55,-30.17,-31.73,0,*55
1512885646.22,1527,1.38,71938.5,-17.55,-30.17,-31.73,0,*54
1512885647.47,1528,1.38,71938.0,-17.55,-30.23,-31.73,0,*5C
1512885648.73,1529,1.38,71934.0,-17.55,-30.01,-31.79,0,*57
1512885650.01,1530,1.38,71938.0,-17.55,-30.05,-31.61,0,*52
1512885651.29,1531,1.38,71938.0,-17.55,-30.05,-31.73,0,*50
1512885652.54,1532,1.38,71934.5,-17.53,-30.01,-31.57,0,*57
1512885653.82,1533,1.38,71938.3,-17.55,-30.05,-31.61,0,*51
1512885655.07,1534,1.38,71938.8,-17.53,-30.01,-31.57,0,*51
1512885656.3,1535,1.38,71936.3,-17.53,-30.17,-31.67,0,*54
1512885657.54,1536,1.31,71938.0,-17.53,-29.95,-31.51,0,*50
1512885658.81,1537,1.31,71934.3,-17.51,-29.95,-31.51,0,*53
1512885660.01,1538,1.38,71936.3,-17.49,-30.11,-31.67,0,*54
1512885661.26,1539,1.38,71932.8,-17.49,-29.95,-31.51,0,*54
1512885662.53,1540,1.38,71936.3,-17.51,-29.89,-31.45,0,*5B
1512885663.77,1541,1.31,71934.8,-17.51,-29.95,-31.67,0,*57
1512885664.97,1542,1.38,71940.3,-17.49,-30.11,-31.67,0,*59
1512885666.21,1543,1.38,71936.5,-17.49,-29.95,-31.51,0,*59
1512885667.47,1544,1.38,71938.0,-17.51,-30.11,-31.85,0,*5A
1512885668.68,1545,1.38,71938.3,-17.49,-30.11,-31.79,0,*51
1512885669.92,1546,1.38,71938.3,-17.49,-30.27,-31.85,0,*54
1512885671.15,1547,1.38,71938.3,-17.49,-30.23,-31.85,0,*51
1512885672.36,1548,1.38,71936.5,-17.49,-30.11,-31.67,0,*53
1512885673.59,1549,1.38,71934.8,-17.49,-30.11,-31.61,0,*54
1512885674.83,1550,1.38,71936.3,-17.49,-30.11,-31.61,0,*5C
1512885676.07,1551,1.38,71938.0,-17.49,-29.95,-31.61,0,*59
1512885677.31,1552,1.38,71932.8,-17.49,-29.95,-31.61,0,*5A
1512885678.57,1553,1.31,71932.0,-17.45,-29.83,-31.57,0,*55
1512885679.87,1554,1.38,71936.3,-17.45,-29.89,-31.61,0,*5D
1512885681.07,1555,1.38,71938.0,-17.47,-30.23,-31.79,0,*5F
1512885682.31,1556,1.38,71934.8,-17.47,-30.27,-31.85,0,*5B
1512885683.59,1557,1.38,71938.5,-17.45,-30.17,-31.73,0,*52
1512885684.87,1558,1.38,71936.5,-17.45,-30.17,-31.73,0,*5D
1512885686.14,1559,1.38,71936.5,-17.45,-30.17,-31.45,0,*59
1512885687.42,1560,1.38,71938.5,-17.45,-30.01,-31.57,0,*57
1512885688.65,1561,1.38,71938.8,-17.43,-30.23,-31.73,0,*56
1512885689.92,1562,1.38,71934.8,-17.43,-30.01,-31.61,0,*56
1512885691.16,1563,1.38,71934.5,-17.43,-30.17,-31.79,0,*59
1512885692.42,1564,1.31,71932.3,-17.43,-30.05,-31.61,0,*54
1512885693.68,1565,1.38,71936.8,-17.39,-30.01,-31.73,0,*5F
1512885694.91,1566,1.38,71934.0,-17.43,-30.23,-31.91,0,*5D
1512885696.18,1567,1.31,71934.0,-17.43,-30.17,-31.95,0,*5F
1512885697.42,1568,1.38,71936.3,-17.39,-30.11,-31.85,0,*5A
1512885698.68,1569,1.31,71934.0,-17.43,-30.05,-31.61,0,*59
1512885699.94,1570,1.38,71934.8,-17.39,-30.17,-31.91,0,*50
1512885701.14,1571,1.31,71934.8,-17.39,-30.11,-31.67,0,*5E
1512885702.38,1572,1.38,71932.8,-17.39,-29.83,-31.51,0,*5B
1512885703.62,1573,1.31,71932.3,-17.39,-29.83,-31.39,0,*54
1512885704.89,1574,1.38,71938.5,-17.37,-29.95,-31.51,0,*54
1512885706.14,1575,1.31,71932.5,-17.37,-29.95,-31.57,0,*53
1512885707.37,1576,1.31,71932.5,-17.35,-30.01,-31.79,0,*5B
1512885708.6,1577,1.31,71936.3,-17.35,-30.05,-31.67,0,*51
1512885709.86,1578,1.38,71942.3,-17.35,-30.05,-31.51,0,*5B
1512885711.1,1579,1.38,71942.8,-17.35,-29.95,-31.61,0,*58
1512885712.34,1580,1.38,71938.8,-17.35,-29.95,-31.61,0,*5E
1512885713.58,1581,1.38,71938.8,-17.35,-30.27,-31.95,0,*55
1512885714.81,1582,1.38,71942.5,-17.35,-30.45,-32.19,0,*55
1512885716.06,1583,1.31,71940.3,-17.33,-30.45,-32.19,0,*52
1512885717.32,1584,1.31,71936.8,-17.35,-30.39,-32.19,0,*58
1512885718.55,1585,1.38,71936.8,-17.35,-30.45,-32.07,0,*5D
1512885719.78,1586,1.38,71938.8,-17.35,-30.45,-32.07,0,*5E
1512885721.01,1587,1.38,71938.5,-17.35,-30.45,-32.19,0,*50
1512885722.25,1588,1.38,71936.8,-17.35,-30.45,-32.19,0,*5F
1512885723.47,1589,1.38,71942.8,-17.31,-30.39,-32.01,0,*58
1512885724.72,1590,1.38,71940.0,-17.33,-30.55,-32.23,0,*58
1512885725.97,1591,1.38,71938.8,-17.31,-30.39,-31.95,0,*5F
1512885727.23,1592,1.31,71934.3,-17.33,-30.27,-31.85,0,*50
1512885728.47,1593,1.31,71934.5,-17.35,-30.23,-31.95,0,*52
1512885729.69,1594,1.31,71936.8,-17.33,-30.23,-31.79,0,*51
1512885730.95,1595,1.31,71932.5,-17.33,-30.23,-31.95,0,*52
1512885732.21,1596,1.38,71938.5,-17.33,-30.45,-32.07,0,*59
1512885733.43,1597,1.31,71934.5,-17.31,-30.39,-32.01,0,*57
1512885734.69,1598,1.31,71938.3,-17.31,-30.17,-31.91,0,*5E
1512885735.92,1599,1.38,71936.5,-17.31,-30.23,-31.91,0,*58
1512885737.18,1600,1.38,71936.5,-17.33,-30.27,-31.85,0,*58
1512885738.44,1601,1.38,71936.8,-17.29,-30.23,-31.95,0,*57
1512885739.7,1602,1.38,71934.0,-17.29,-30.33,-31.95,0,*55
1512885740.95,1603,1.38,71938.3,-17.29,-30.39,-32.13,0,*53
1512885742.18,1604,1.38,71938.0,-17.29,-30.23,-32.01,0,*5C
1512885743.46,1605,1.38,71936.3,-17.29,-30.39,-31.95,0,*58
1512885744.7,1606,1.38,71934.5,-17.27,-30.27,-31.91,0,*5E
1512885745.96,1607,1.31,71936.5,-17.27,-30.01,-31.73,0,*57
1512885747.19,1608,1.38,71936.0,-17.27,-30.01,-31.67,0,*5D
1512885748.44,1609,1.38,71940.0,-17.29,-30.39,-32.01,0,*5A
1512885749.7,1610,1.38,71936.0,-17.27,-30.51,-32.07,0,*54
1512885750.94,1611,1.31,71934.8,-17.27,-30.45,-31.95,0,*58
1512885752.2,1612,1.38,71938.3,-17.29,-30.33,-31.95,0,*54
1512885753.43,1613,1.38,71936.0,-17.27,-30.11,-31.85,0,*5A
1512885754.67,1614,1.38,71938.3,-17.27,-30.45,-32.07,0,*55
1512885755.9,1615,1.31,71938.3,-17.27,-30.51,-32.13,0,*54
1512885757.16,1616,1.38,71932.5,-17.25,-30.33,-32.07,0,*54
1512885758.42,1617,1.38,71938.0,-17.25,-30.27,-32.07,0,*50
1512885759.62,1618,1.38,71938.0,-17.23,-30.45,-32.13,0,*58
1512885760.88,1619,1.38,71936.8,-17.25,-30.33,-32.07,0,*5B
1512885762.17,1620,1.31,71934.5,-17.25,-30.17,-31.95,0,*5F
1512885763.42,1621,1.31,71932.8,-17.25,-30.33,-31.95,0,*58
1512885764.69,1622,1.31,71936.0,-17.25,-30.27,-31.95,0,*5E
1512885765.92,1623,1.31,71936.0,-17.21,-30.27,-32.01,0,*55
1512885767.15,1624,1.31,71934.3,-17.23,-30.45,-32.07,0,*52
1512885768.43,1625,1.31,71934.3,-17.21,-30.39,-32.07,0,*5A
1512885769.7,1626,1.38,71934.5,-17.21,-30.39,-31.91,0,*55
1512885770.93,1627,1.31,71932.0,-17.21,-30.27,-32.01,0,*51
1512885772.17,1628,1.31,71934.5,-17.21,-30.27,-32.01,0,*5E
1512885773.4,1629,1.38,71938.0,-17.17,-30.33,-32.01,0,*5F
1512885774.65,1630,1.38,71936.3,-17.21,-30.45,-32.19,0,*5A
1512885775.93,1631,1.38,71934.8,-17.21,-30.61,-32.19,0,*5D
1512885777.19,1632,1.31,71932.5,-17.17,-30.61,-32.13,0,*51
1512885778.46,1633,1.31,71934.3,-17.21,-30.55,-32.07,0,*57
1512885779.72,1634,1.31,71934.3,-17.17,-30.39,-32.01,0,*59
1512885780.99,1635,1.38,71938.0,-17.21,-30.55,-32.19,0,*5E
1512885782.28,1636,1.31,71932.0,-17.17,-30.61,-32.19,0,*5F
1512885783.51,1637,1.38,71938.3,-17.21,-30.67,-32.35,0,*53
1512885784.77,1638,1.31,71932.5,-17.17,-30.73,-32.35,0,*5C
1512885786.06,1639,1.31,71930.8,-17.17,-30.89,-32.45,0,*5F
1512885787.31,1640,1.38,71938.8,-17.17,-30.73,-32.35,0,*53
1512885788.57,1641,1.31,71934.8,-17.17,-30.73,-32.35,0,*52
1512885789.84,1642,1.31,71932.5,-17.13,-30.77,-32.63,0,*52
1512885791.1,1643,1.31,71934.0,-17.17,-30.89,-32.51,0,*57
1512885792.34,1644,1.38,71938.3,-17.13,-30.73,-32.35,0,*53
1512885793.59,1645,1.31,71936.5,-17.13,-30.89,-32.51,0,*55
1512885794.85,1646,1.31,71936.0,-17.13,-30.95,-32.63,0,*5A
1512885796.14,1647,1.38,71938.3,-17.17,-31.11,-32.79,0,*59
1512885797.38,1648,1.31,71928.3,-17.17,-31.05,-32.69,0,*52
1512885798.67,1649,1.31,71928.3,-17.17,-30.95,-32.79,0,*5A
1512885799.93,1650,1.31,71932.5,-17.17,-30.89,-32.69,0,*5E
1512885801.19,1651,1.38,71938.3,-17.13,-30.89,-32.45,0,*55
1512885802.45,1652,1.38,71936.0,-17.13,-30.55,-32.19,0,*5E
1512885803.71,1653,1.31,71932.8,-17.13,-30.73,-32.29,0,*58
1512885804.95,1654,1.38,71934.5,-17.13,-30.73,-32.35,0,*52
1512885806.22,1655,1.38,71934.8,-17.13,-30.73,-32.45,0,*54
1512885807.49,1656,1.31,71934.0,-17.13,-31.11,-32.79,0,*5D
1512885808.7,1657,1.31,71936.5,-17.13,-31.29,-32.91,0,*51
1512885809.99,1658,1.38,71938.0,-17.17,-31.23,-33.09,0,*50
1512885811.26,1659,1.31,71936.0,-17.13,-31.11,-32.79,0,*52
1512885812.53,1660,1.38,71936.8,-17.13,-30.77,-32.45,0,*56
1512885813.76,1661,1.31,71932.3,-17.13,-30.73,-32.35,0,*54
1512885815.03,1662,1.31,71934.5,-17.13,-30.95,-32.63,0,*5C
1512885816.3,1663,1.31,71934.5,-17.13,-31.23,-32.79,0,*5A
1512885817.54,1664,1.38,71938.3,-17.13,-31.05,-32.85,0,*5A
1512885818.83,1665,1.31,71934.3,-17.11,-31.23,-32.85,0,*5D
1512885820.09,1666,1.31,71932.8,-17.11,-31.05,-32.85,0,*5A
1512885821.33,1667,1.38,71930.3,-17.13,-31.01,-32.79,0,*5E
1512885822.59,1668,1.31,71930.8,-17.11,-31.05,-32.75,0,*5B
1512885823.88,1669,1.38,71934.8,-17.11,-31.23,-32.97,0,*52
1512885825.13,1670,1.31,71928.5,-17.13,-31.61,-33.21,0,*52
1512885826.4,1671,1.31,71932.3,-17.13,-31.61,-33.27,0,*55
1512885827.66,1672,1.31,71934.8,-17.13,-31.85,-33.61,0,*5E
1512885828.9,1673,1.31,71934.0,-17.13,-31.85,-33.55,0,*58
1512885830.19,1674,1.38,71940.0,-17.17,-31.73,-33.27,0,*57
1512885831.41,1675,1.31,71938.0,-17.13,-31.79,-33.37,0,*59
1512885832.7,1676,1.38,71942.3,-17.17,-31.57,-33.27,0,*53
1512885833.94,1677,1.38,71942.3,-17.17,-31.45,-33.21,0,*57
1512885835.19,1678,1.31,71938.5,-17.21,-31.33,-33.09,0,*56
1512885836.45,1679,1.38,71940.0,-17.17,-31.05,-32.79,0,*51
1512885837.69,1680,1.31,71934.5,-17.13,-31.05,-32.63,0,*58
1512885838.9,1681,1.38,71932.3,-17.13,-31.29,-32.91,0,*5A
1512885840.14,1682,1.31,71930.5,-17.17,-31.45,-33.03,0,*5D
1512885841.38,1683,1.31,71930.8,-17.17,-31.45,-33.21,0,*5C
1512885842.64,1684,1.31,71934.5,-17.17,-31.61,-33.21,0,*5D
1512885843.91,1685,1.31,71934.0,-17.17,-31.73,-33.37,0,*58
1512885845.17,1686,1.31,71934.0,-17.17,-31.85,-33.55,0,*56
1512885846.44,1687,1.31,71934.5,-17.17,-31.79,-33.43,0,*53
1512885847.68,1688,1.31,71932.5,-17.17,-31.79,-33.37,0,*5F
1512885848.94,1689,1.31,71938.5,-17.17,-31.85,-33.55,0,*59
1512885850.22,1690,1.31,71934.3,-17.21,-31.91,-33.43,0,*56
1512885851.48,1691,1.38,71938.5,-17.21,-31.67,-33.27,0,*5C
1512885852.75,1692,1.31,71934.8,-17.17,-31.23,-33.03,0,*5C
1512885854.01,1693,1.38,71938.5,-17.17,-31.61,-33.21,0,*5B
1512885855.29,1694,1.31,71934.8,-17.17,-31.39,-33.09,0,*5B
1512885856.58,1695,1.31,71936.0,-17.17,-31.39,-33.09,0,*5A
1512885857.84,1696,1.31,71936.0,-17.17,-31.29,-33.09,0,*58
1512885859.1,1697,1.31,71932.5,-17.17,-31.45,-33.09,0,*53
1512885860.37,1698,1.31,71932.3,-17.17,-31.57,-33.21,0,*55
1512885861.63,1699,1.38,71938.0,-17.17,-31.45,-33.09,0,*5D
1512885862.87,1700,1.31,71930.8,-17.17,-31.29,-33.03,0,*5C
1512885864.13,1701,1.31,71924.8,-17.17,-31.57,-33.21,0,*54
1512885865.41,1702,1.31,71928.3,-17.21,-31.91,-33.49,0,*56
1512885866.69,1703,1.31,71928.0,-17.21,-31.85,-33.49,0,*52
1512885867.95,1704,1.31,71932.3,-17.17,-32.13,-33.61,0,*56
1512885869.24,1705,1.31,71932.5,-17.17,-31.95,-33.73,0,*59
1512885870.49,1706,1.31,71934.3,-17.21,-32.01,-33.61,0,*52
1512885871.75,1707,1.38,71936.5,-17.21,-32.19,-33.83,0,*56
1512885872.97,1708,1.31,71936.8,-17.21,-32.23,-33.95,0,*57
1512885874.23,1709,1.31,71938.5,-17.21,-32.19,-33.83,0,*58
1512885875.49,1710,1.31,71938.8,-17.21,-32.01,-33.77,0,*52
1512885876.74,1711,1.31,71940.5,-17.21,-32.19,-33.83,0,*51
1512885877.96,1712,1.31,71938.8,-17.21,-32.35,-33.95,0,*5B
1512885879.22,1713,1.31,71936.8,-17.21,-32.01,-33.77,0,*51
1512885880.45,1714,1.31,71936.0,-17.23,-32.13,-33.89,0,*56
1512885881.66,1715,1.31,71938.3,-17.23,-32.13,-33.83,0,*5D
1512885882.89,1716,1.31,71938.5,-17.23,-32.13,-33.73,0,*51
1512885884.15,1717,1.31,71938.5,-17.25,-31.95,-33.55,0,*5F
1512885885.39,1718,1.31,71938.3,-17.23,-31.73,-33.37,0,*5A
1512885886.63,1719,1.31,71938.5,-17.23,-31.95,-33.67,0,*56
1512885887.87,1720,1.31,71936.0,-17.23,-32.07,-33.67,0,*54
1512885889.13,1721,1.31,71938.8,-17.23,-32.07,-33.73,0,*50
1512885890.39,1722,1.38,71938.8,-17.23,-32.07,-33.73,0,*53
1512885891.62,1723,1.31,71938.8,-17.23,-32.07,-33.83,0,*5D
1512885892.88,1724,1.31,71938.0,-17.25,-32.23,-33.89,0,*50
1512885894.13,1725,1.38,71940.0,-17.25,-32.29,-34.07,0,*5A
1512885895.37,1726,1.31,71936.5,-17.25,-32.29,-34.25,0,*59
1512885896.64,1727,1.31,71936.5,-17.23,-32.07,-34.01,0,*54
1512885897.89,1728,1.31,71936.8,-17.25,-32.13,-33.89,0,*5F
1512885899.12,1729,1.31,71938.3,-17.23,-32.29,-34.07,0,*50
1512885900.35,1730,1.31,71938.5,-17.27,-32.23,-33.89,0,*57
1512885901.63,1731,1.38,71940.3,-17.25,-32.07,-33.73,0,*57
1512885902.89,1732,1.38,71940.0,-17.25,-32.23,-33.89,0,*57
1512885904.15,1733,1.31,71938.5,-17.25,-32.07,-33.67,0,*50
1512885905.41,1734,1.38,71942.3,-17.23,-31.91,-33.49,0,*51
1512885906.67,1735,1.31,71932.5,-17.25,-31.95,-33.55,0,*5F
1512885907.93,1736,1.38,71940.8,-17.23,-31.85,-33.49,0,*56
1512885909.21,1737,1.38,71938.5,-17.25,-31.73,-33.31,0,*57
1512885910.45,1738,1.31,71936.0,-17.23,-31.73,-33.37,0,*58
1512885911.72,1739,1.31,71932.8,-17.25,-31.73,-33.37,0,*5F
1512885912.98,1740,1.38,71938.3,-17.23,-31.73,-33.31,0,*51
1512885914.24,1741,1.31,71932.0,-17.25,-32.13,-33.89,0,*50
1512885915.47,1742,1.38,71942.3,-17.23,-32.13,-33.89,0,*55
1512885916.7,1743,1.31,71938.0,-17.25,-32.13,-33.83,0,*58
1512885917.96,1744,1.31,71934.3,-17.25,-32.07,-33.67,0,*50
1512885919.16,1745,1.38,71936.5,-17.23,-32.13,-33.83,0,*58
1512885920.41,1746,1.31,71934.0,-17.25,-32.29,-34.07,0,*5F
1512885921.64,1747,1.31,71936.8,-17.25,-32.39,-34.25,0,*5F
1512885922.87,1748,1.31,71936.8,-17.23,-32.13,-33.89,0,*5F
1512885924.12,1749,1.38,71936.8,-17.25,-32.23,-34.01,0,*5C
1512885925.36,1750,1.31,71938.0,-17.25,-32.39,-34.07,0,*59
1512885926.6,1751,1.31,71932.0,-17.25,-32.45,-34.25,0,*53
1512885927.85,1752,1.38,71936.5,-17.25,-32.29,-34.25,0,*5A
1512885929.07,1753,1.31,71934.0,-17.25,-32.39,-34.25,0,*5A
1512885930.36,1754,1.31,71934.5,-17.25,-32.07,-33.89,0,*51
1512885931.62,1755,1.31,71934.0,-17.25,-31.95,-33.55,0,*59
1512885932.85,1756,1.31,71936.0,-17.23,-31.95,-33.55,0,*5C
1512885934.11,1757,1.31,71938.3,-17.27,-31.91,-33.49,0,*50
1512885935.38,1758,1.31,71934.5,-17.27,-31.73,-33.49,0,*53
1512885936.64,1759,1.31,71936.8,-17.27,-31.85,-33.49,0,*5B
1512885937.9,1760,1.31,71936.0,-17.25,-31.95,-33.67,0,*5E
1512885939.19,1761,1.31,71936.0,-17.25,-31.91,-33.49,0,*57
1512885940.42,1762,1.38,71942.0,-17.25,-31.67,-33.37,0,*54
1512885941.7,1763,1.31,71936.8,-17.25,-31.95,-33.73,0,*58
1512885942.91,1764,1.31,71940.3,-17.23,-32.23,-34.07,0,*53
1512885944.16,1765,1.31,71938.0,-17.23,-32.29,-34.01,0,*5E
1512885945.4,1766,1.31,71936.5,-17.23,-32.13,-34.01,0,*54
1512885946.63,1767,1.38,71940.8,-17.25,-32.39,-34.07,0,*5D
1512885947.83,1768,1.31,71936.0,-17.23,-32.39,-34.07,0,*54
1512885949.08,1769,1.31,71938.0,-17.25,-32.45,-34.41,0,*5A
1512885950.33,1770,1.38,71942.0,-17.25,-32.57,-34.31,0,*56
1512885951.57,1771,1.31,71936.5,-17.27,-32.57,-34.31,0,*55
1512885952.78,1772,1.31,71938.0,-17.27,-32.57,-34.47,0,*57
1512885954.01,1773,1.31,71938.8,-17.27,-32.45,-34.41,0,*53
1512885955.24,1774,1.38,71942.3,-17.27,-32.45,-34.07,0,*56
1512885956.45,1775,1.31,71936.8,-17.27,-32.39,-34.07,0,*5C
1512885957.72,1776,1.31,71938.5,-17.27,-32.45,-34.01,0,*52
1512885958.93,1777,1.31,71936.3,-17.27,-32.39,-34.07,0,*5E
1512885960.13,1778,1.31,71936.3,-17.27,-32.39,-34.25,0,*51
1512885961.35,1779,1.31,71938.5,-17.27,-32.29,-34.25,0,*51
1512885962.59,1780,1.31,71938.8,-17.27,-32.07,-33.67,0,*5A
1512885963.83,1781,1.38,71940.0,-17.27,-32.07,-33.83,0,*51
1512885965.07,1782,1.31,71936.5,-17.27,-32.13,-33.89,0,*5D
1512885966.3,1783,1.31,71938.5,-17.27,-32.23,-34.01,0,*58
1512885967.51,1784,1.31,71938.5,-17.27,-32.39,-34.07,0,*52
1512885968.77,1785,1.31,71936.8,-17.27,-32.29,-33.89,0,*53
1512885969.97,1786,1.31,71940.0,-17.27,-32.23,-34.07,0,*5B
1512885971.21,1787,1.31,71936.8,-17.27,-32.57,-34.31,0,*5C
1512885972.44,1788,1.31,71938.3,-17.27,-32.39,-34.31,0,*5B
1512885973.69,1789,1.31,71940.3,-17.27,-32.45,-34.31,0,*51
1512885974.94,1790,1.31,71936.0,-17.29,-32.69,-34.47,0,*58
1512885976.17,1791,1.31,71938.5,-17.27,-32.79,-34.59,0,*59
1512885977.38,1792,1.31,71936.3,-17.27,-32.91,-34.59,0,*5C
1512885978.64,1793,1.31,71938.5,-17.27,-32.63,-34.31,0,*5E
1512885979.92,1794,1.31,71942.5,-17.29,-32.63,-34.53,0,*53
1512885981.21,1795,1.31,71942.0,-17.29,-32.63,-34.65,0,*57
1512885982.42,1796,1.31,71942.8,-17.27,-32.57,-34.41,0,*5B
1512885983.66,1797,1.31,71940.0,-17.27,-32.63,-34.47,0,*5B
1512885984.92,1798,1.31,71940.5,-17.29,-32.69,-34.53,0,*55
1512885986.2,1799,1.31,71940.5,-17.29,-32.63,-34.35,0,*5E
1512885987.48,1800,1.31,71940.5,-17.29,-32.45,-34.31,0,*51
1512885988.76,1801,1.31,71940.3,-17.29,-32.63,-34.53,0,*50
1512885990.01,1802,1.31,71942.3,-17.29,-32.35,-34.31,0,*54
1512885991.26,1803,1.31,71940.3,-17.29,-32.51,-34.35,0,*53
1512885992.53,1804,1.31,71938.8,-17.29,-32.63,-34.47,0,*50
1512885993.79,1805,1.31,71938.5,-17.29,-32.45,-34.47,0,*55
1512885995.05,1806,1.31,71940.0,-17.29,-32.63,-34.47,0,*52
1512885996.31,1807,1.31,71938.3,-17.27,-32.45,-34.31,0,*58
1512885997.56,1808,1.31,71942.8,-17.29,-32.45,-34.13,0,*59
1512885998.82,1809,1.31,71938.8,-17.29,-32.51,-34.31,0,*5D
1512886000.1,1810,1.31,71938.3,-17.29,-32.79,-34.53,0,*5B
1512886001.35,1811,1.31,71936.5,-17.29,-32.69,-34.47,0,*5E
1512886002.61,1812,1.31,71938.5,-17.29,-32.45,-34.47,0,*53
1512886003.87,1813,1.31,71936.8,-17.29,-32.51,-34.53,0,*52
1512886005.08,1814,1.31,71936.5,-17.31,-32.51,-34.47,0,*59
1512886006.31,1815,1.31,71938.8,-17.33,-32.91,-34.71,0,*53
1512886007.54,1816,1.31,71940.0,-17.31,-32.97,-34.71,0,*54
1512886008.77,1817,1.31,71942.0,-17.31,-33.03,-34.83,0,*54
1512886010.01,1818,1.31,71942.3,-17.31,-32.69,-34.65,0,*5E
1512886011.27,1819,1.31,71938.5,-17.31,-32.79,-34.53,0,*5B
1512886012.54,1820,1.31,71940.0,-17.33,-32.75,-34.59,0,*55
1512886013.8,1821,1.38,71940.8,-17.31,-32.79,-34.65,0,*55
1512886015.06,1822,1.31,71938.8,-17.31,-32.79,-34.53,0,*53
1512886016.29,1823,1.31,71942.5,-17.33,-32.57,-34.41,0,*5F
1512886017.55,1824,1.31,71940.0,-17.33,-32.75,-34.59,0,*51
1512886018.78,1825,1.31,71940.8,-17.31,-32.97,-34.71,0,*54
1512886020.01,1826,1.31,71942.0,-17.33,-32.91,-34.77,0,*55
1512886021.3,1827,1.31,71940.8,-17.33,-33.09,-34.95,0,*58
1512886022.55,1828,1.31,71940.5,-17.33,-33.15,-34.95,0,*5A
1512886023.84,1829,1.31,71936.8,-17.33,-33.09,-35.07,0,*5C
1512886025.12,1830,1.31,71940.0,-17.33,-33.27,-35.07,0,*58
1512886026.4,1831,1.31,71940.0,-17.33,-33.27,-35.07,0,*59
1512886027.65,1832,1.31,71942.0,-17.33,-33.27,-35.13,0,*5F
1512886028.91,1833,1.31,71940.8,-17.35,-33.31,-35.23,0,*5C
1512886030.12,1834,1.31,71940.5,-17.35,-33.15,-35.13,0,*5E
1512886031.38,1835,1.31,71940.5,-17.37,-33.31,-35.17,0,*5F
1512886032.6,1836,1.31,71944.0,-17.35,-33.15,-35.07,0,*59
1512886033.83,1837,1.31,71940.0,-17.37,-33.21,-35.17,0,*5C
1512886035.09,1838,1.31,71942.8,-17.37,-33.31,-35.17,0,*52
1512886036.3,1839,1.31,71942.8,-17.35,-33.15,-35.13,0,*53
1512886037.55,1840,1.31,71942.0,-17.37,-33.31,-35.17,0,*5D
1512886038.79,1841,1.31,71940.8,-17.35,-33.27,-35.13,0,*5D
1512886040.02,1842,1.31,71942.5,-17.37,-33.15,-35.13,0,*5D
1512886041.28,1843,1.31,71940.3,-17.37,-33.31,-35.17,0,*5E
1512886042.53,1844,1.31,71938.3,-17.39,-33.31,-35.35,0,*57
1512886043.75,1845,1.31,71940.3,-17.43,-33.37,-35.17,0,*5D
1512886045.01,1846,1.31,71940.5,-17.39,-33.27,-35.07,0,*53
1512886046.22,1847,1.31,71940.0,-17.43,-33.21,-35.17,0,*58
1512886047.46,1848,1.31,71940.3,-17.39,-33.31,-35.17,0,*5B
1512886048.67,1849,1.31,71942.5,-17.39,-33.37,-35.29,0,*51
1512886049.89,1850,1.31,71942.0,-17.39,-33.37,-35.29,0,*59
1512886051.15,1851,1.31,71942.0,-17.43,-33.27,-35.23,0,*5E
1512886052.41,1852,1.31,71938.3,-17.43,-33.43,-35.23,0,*5F
1512886053.66,1853,1.31,71940.5,-17.43,-33.37,-35.23,0,*5D
1512886054.94,1854,1.31,71940.3,-17.45,-33.27,-35.07,0,*5B
1512886056.2,1855,1.31,71936.5,-17.45,-33.37,-35.23,0,*5D
1512886057.45,1856,1.31,71938.5,-17.47,-33.27,-35.23,0,*5D
1512886058.72,1857,1.31,71940.8,-17.47,-33.31,-35.41,0,*5F
1512886059.96,1858,1.31,71940.0,-17.47,-33.31,-35.29,0,*5E
1512886061.2,1859,1.31,71938.3,-17.47,-33.49,-35.29,0,*50
1512886062.46,1860,1.31,71940.0,-17.47,-33.31,-35.23,0,*5F
1512886063.69,1861,1.31,71938.8,-17.47,-33.43,-35.13,0,*58
1512886064.93,1862,1.31,71940.8,-17.47,-33.27,-35.29,0,*50
1512886066.19,1863,1.31,71942.3,-17.49,-33.49,-35.23,0,*5D
1512886067.43,1864,1.31,71940.0,-17.49,-33.43,-35.29,0,*5A
1512886068.68,1865,1.31,71942.8,-17.49,-33.49,-35.29,0,*51
1512886069.91,1866,1.31,71936.0,-17.49,-33.61,-35.29,0,*58
1512886071.16,1867,1.31,71938.5,-17.49,-33.43,-35.29,0,*59
1512886072.39,1868,1.31,71942.0,-17.49,-33.27,-35.13,0,*5D
1512886073.66,1869,1.31,71936.5,-17.49,-33.09,-34.95,0,*5F
1512886074.89,1870,1.31,71938.5,-17.49,-33.27,-35.13,0,*54
1512886076.15,1871,1.31,71940.5,-17.49,-33.43,-35.41,0,*50
1512886077.42,1872,1.31,71942.8,-17.49,-33.49,-35.41,0,*59
1512886078.7,1873,1.31,71940.0,-17.51,-33.31,-35.23,0,*5A
1512886079.97,1874,1.31,71942.3,-17.51,-33.31,-35.13,0,*5E
1512886081.23,1875,1.31,71940.0,-17.51,-33.27,-35.13,0,*58
1512886082.49,1876,1.31,71938.3,-17.49,-33.27,-35.07,0,*57
1512886083.78,1877,1.31,71940.0,-17.51,-33.09,-34.95,0,*59
1512886085.05,1878,1.31,71938.5,-17.49,-33.09,-34.95,0,*5F
1512886086.31,1879,1.31,71940.5,-17.51,-33.27,-35.13,0,*54
1512886087.55,1880,1.31,71940.5,-17.49,-33.21,-34.95,0,*52
1512886088.78,1881,1.31,71942.5,-17.49,-33.21,-34.95,0,*53
1512886090.05,1882,1.31,71938.5,-17.51,-33.21,-34.95,0,*59
1512886091.29,1883,1.31,71938.5,-17.51,-33.21,-34.89,0,*55
1512886092.55,1884,1.31,71940.8,-17.51,-33.21,-34.95,0,*5F
1512886093.79,1885,1.31,71936.3,-17.51,-33.21,-34.89,0,*53
1512886095.07,1886,1.31,71940.0,-17.51,-33.09,-35.07,0,*5D
1512886096.34,1887,1.31,71940.3,-17.51,-32.85,-34.77,0,*5F
1512886097.58,1888,1.31,71940.5,-17.51,-33.03,-34.77,0,*5F
1512886098.81,1889,1.31,71940.8,-17.49,-32.85,-34.89,0,*59
1512886100.08,1890,1.31,71942.8,-17.51,-32.85,-34.77,0,*59
1512886101.29,1891,1.31,71940.5,-17.49,-33.21,-35.13,0,*5D
1512886102.52,1892,1.31,71942.3,-17.49,-33.21,-35.07,0,*5B
1512886103.76,1893,1.31,71938.5,-17.51,-33.03,-34.77,0,*55
1512886105.02,1894,1.31,71940.3,-17.51,-33.21,-35.07,0,*54
1512886106.23,1895,1.31,71942.3,-17.49,-33.03,-34.89,0,*5B
1512886107.44,1896,1.31,71938.5,-17.49,-33.03,-34.89,0,*58
1512886108.7,1897,1.31,71942.3,-17.51,-33.21,-35.07,0,*57